H-2A R/B, 61440

Orbit data source: Space-Track

H-2A R/B, 61440 is space debris in SSO originally from a launch on Thu, 26 Sep 2024 UTC launched from the Tanegashima Space Center (TNSTA). Debris objects in space refer to the collection of defunct objects orbiting the Earth. Examples of debris include non-operational satellites, rocket bodies, and fragments generated from explosions, collisions, or faulty payload assembly.

Loading next visibility...
Identifier
61440, 2024-176B
Orbit
SSO
Country
Flag of JPJP / JPN
Related business
Manufacturer
MHI Tobishima
Mission
Spacecraft
Bus & Motor
H-2A STAGE 2, Unknown motor
Mass
4,000 kg wet, 4,000 kg dry
Launch date (UTC)
2024-09-26 (1 year ago)
Launch vehicle
Unknown
Launch site
Tanegashima Space Center (TNSTA)
Object type
Payload
Rocket body
Debris
Shape & HBR
Cyl, 4.6 m
Radar Cross Section
35.186 m², Large (>1 m²)

Expand to show TLE details & history
Last TLE update: 19 hours ago

TLE from 19 hours ago
0 H-2A R/B
1 61440U 24176B   25340.85714308  .00075837  00000-0  10538-2 0  9994
2 61440  97.2607 111.6114 0009162 273.5849  86.4358 15.56703737 67167
Epoch: 2025-12-06T20:34Z
TLE epoch observation values (Epoch: 2025-12-06T20:34:17.162Z)
Latitude
-0.00004°
Longitude
87.16103°
Altitude
399.968 km
Speed
7.671 km/s
True Right ascension
07h 26m 26s
True Declination
0° 00' 00"
Sunlit
Object was in full shadow at epoch
Visualization orbit readout
Latitude
Unknown
Longitude
Unknown
Altitude
Unknown
Speed
Unknown
Apparent Right ascension
Unknown
Apparent Declination
Unknown
Sunlit
N/A
Visualization observer readout
Local Sidereal Time
13:47:33
Azimuth
Unknown
Elevation
Unknown
Doppler factor
Unknown
Orbital elements
Apogee altitude
400.32 km
Perigee altitude
387.911 km
Semi-major axis
6,772.252 km
Eccentricity
0.00092
Inclination
97.2607°
RAAN
111.6114°
Arg. of periapsis
273.5849°
True anomaly
86.54059°
Mean anomaly
86.4358°
Eccentric anomaly
86.4882°
Mean motion
3.89443 °/min
Orbital period
92.44 mins
BSTAR
0.0010538
Loading maneuver chart data...
Computing Atmospheric mass density...
Loading historical data...
Loading historical data...
Loading historical data...
Loading historical data...
Loading historical data...
Loading historical data...
Loading historical data...
Other satellites on launch #176 in the year 2024 (2024-09-26 UTC)

Documentation

Showing up to 5 results
|